Location: Cudham
(51.3000°N, 0.0667°E)
Time: 22:06:19
(UTC+00:00)

Cosmos 1538 Rocket - Pass Details

Date: 19 May 2025
Orbit: 749 x 788 km, 74.0° (Epoch: 18 June)

Event Time Altitude Azimuth Distance (km) Brightness Sun altitude
Exits shadow 22:50:38 30° 151° (SSE) 1,328 4.7 -17.3°
Maximum altitude 22:52:31 42° 105° (ESE) 1,069 4.5 -17.4°
Drops below altitude 10° 22:57:21 10° 36° (NE) 2,280 7.0 -17.6°
Sets 22:59:49 0° 30° (NNE) 3,209 8.0 -17.6°
